Weather History for KGCN - February, 2012

Change the Weather History Date:

Friday, February 24, 2012

  Actual Average Record
Temperature  
Mean Temperature 32 °F -  
Max Temperature 48 °F 41 °F 61 °F (1999)
Min Temperature 17 °F 16 °F 6 °F (2006)
Degree Days  
Heating Degree Days 32    
Moisture  
Dew Point 8 °F    
Average Humidity 43    
Maximum Humidity 81    
Minimum Humidity 16    
Precipitation  
Precipitation 0.00 in - - ()
Sea Level Pressure  
Sea Level Pressure 30.21 in    
Wind  
Wind Speed 7 mph (ENE)    
Max Wind Speed 15 mph    
Max Gust Speed 24 mph    
Visibility 10 miles    
Events      
Averages and records for this station are not official NWS values.
T = Trace of Precipitation, MM = Missing Value Source: NWS Daily Summary

Daily Weather History Graph

Daily Weather History Graph

Search for Another Location

Airport or City:

Trip Planner

Search our weather history database for the weather conditions in past years. The results will help you decide how hot, cold, wet, or windy it might be!

Date:

Astronomy

Feb. 24, 2012 Rise Set
Actual Time 7:05 AM MST 6:18 PM MST
Civil Twilight 6:39 AM MST 6:44 PM MST
Nautical Twilight 6:10 AM MST 7:14 PM MST
Astronomical Twilight 5:40 AM MST 7:43 PM MST
Moon 8:09 AM MST (2/24) 9:17 PM MST (2/24)
Length of Visible Light 12h 04m
Length of Day
11h 12m
Waxing Crescent, 8% of the Moon is Illuminated
Feb 24
Waxing Crescent
Feb 29
First Quarter
Mar 8
Full
Mar 14
Last Quarter
Mar 22
New

Hourly Weather History & Observations

Time (MST) Temp. Windchill Dew Point Humidity Pressure Visibility Wind Dir Wind Speed Gust Speed Precip Events Conditions
12:54 AM 21.0 °F 14.6 °F 16.0 °F 81% 30.11 in 10.0 mi SSW 4.6 mph - N/A   Clear
1:54 AM 19.9 °F 10.1 °F 14.0 °F 78% 30.13 in 10.0 mi NE 8.1 mph - N/A   Clear
2:54 AM 18.0 °F 9.8 °F 12.0 °F 78% 30.13 in 10.0 mi NE 5.8 mph - N/A   Clear
3:54 AM 19.9 °F - 10.9 °F 68% 30.12 in 10.0 mi Calm Calm - N/A   Clear
4:54 AM 17.1 °F 10.0 °F 10.9 °F 77% 30.16 in 10.0 mi NE 4.6 mph - N/A   Clear
5:54 AM 24.1 °F 18.2 °F 7.0 °F 48% 30.17 in 10.0 mi ENE 4.6 mph - N/A   Clear
6:54 AM 28.0 °F 18.6 °F 6.1 °F 39% 30.16 in 10.0 mi ENE 10.4 mph - N/A   Clear
7:54 AM 30.0 °F 21.7 °F 3.9 °F 33% 30.19 in 10.0 mi East 9.2 mph - N/A   Clear
8:54 AM 33.1 °F 23.0 °F 5.0 °F 31% 30.25 in 10.0 mi ENE 15.0 mph 24.2 mph N/A   Clear
9:54 AM 37.0 °F 29.3 °F 6.1 °F 28% 30.25 in 10.0 mi ENE 11.5 mph - N/A   Clear
10:54 AM 39.9 °F 32.1 °F 6.1 °F 25% 30.26 in 10.0 mi ENE 13.8 mph - N/A   Clear
11:54 AM 42.1 °F 36.1 °F 6.1 °F 23% 30.27 in 10.0 mi East 10.4 mph 18.4 mph N/A   Clear
12:54 PM 43.0 °F 37.2 °F 7.0 °F 23% 30.27 in 10.0 mi East 10.4 mph 19.6 mph N/A   Clear
1:54 PM 46.0 °F 40.2 °F 3.0 °F 17% 30.23 in 10.0 mi ENE 12.7 mph 16.1 mph N/A   Clear
2:54 PM 46.9 °F - 3.0 °F 16% 30.22 in 10.0 mi ENE 9.2 mph - N/A   Clear
3:54 PM 48.9 °F - 3.9 °F 16% 30.19 in 10.0 mi ENE 6.9 mph - N/A   Clear
4:54 PM 48.9 °F - 6.1 °F 18% 30.20 in 10.0 mi NE 6.9 mph - N/A   Clear
5:54 PM 43.0 °F 38.2 °F 7.0 °F 23% 30.20 in 10.0 mi NE 8.1 mph - N/A   Clear
6:54 PM 34.0 °F 28.8 °F 7.0 °F 32% 30.24 in 10.0 mi NE 5.8 mph - N/A   Clear
7:54 PM 28.9 °F 25.2 °F 7.0 °F 40% 30.25 in 10.0 mi NNE 3.5 mph - N/A   Clear
8:54 PM 25.0 °F - 9.0 °F 51% 30.26 in 10.0 mi Calm Calm - N/A   Clear
9:54 PM 23.0 °F - 10.0 °F 58% 30.25 in 10.0 mi Calm Calm - N/A   Clear
10:54 PM 19.9 °F 14.9 °F 12.0 °F 71% 30.25 in 10.0 mi ENE 3.5 mph - N/A   Clear
11:54 PM 23.0 °F - 10.9 °F 60% 30.20 in 10.0 mi Calm Calm - N/A   Clear